Location: Alma
(38.7220°N, 88.9090°W)
Time: 21:49:51
(UTC-06:00)

Vanguard 2 - Pass Details

Date: 16 November 2019
Orbit: 553 x 2938 km, 32.9° (Epoch: 10 December)

Event Time Altitude Azimuth Distance (km) Brightness Sun altitude
Rises 09:43:09 0° 245° (WSW) 4,760 11.5 26.3°
Reaches altitude 10° 09:47:05 10° 240° (WSW) 3,367 10.9 26.7°
Maximum altitude 09:54:21 42° 173° (S) 1,300 10.3 27.4°
Drops below altitude 10° 09:59:06 10° 102° (ESE) 2,198 10.5 27.8°
Sets 10:01:11 0° 95° (E) 2,962 11.0 28.0°
